Date String (YYYY-MM-DD hh:mm:ss) UTC,Instrument flags,absolute air pressure of the measurement (hPa),sample flow rate (lpm),inlet stack bypass flow (lpm),air temperature of the measurement (°C),ambient temperature measured by the external sensor (°C),aerosol sample conditioner tube jacket temperature (°C),OPC LED temperature (°C),internal box temperature (°C),relative humidity of the measurement (%),span deviation,mass concentration of particles derived from Lorenz-Mie calculation of OPC scattering (μg/m³),mass concentration of particles derived from Lorenz-Mie calculation of OPC scattering (μg/m³),mass concentration of particles derived from Lorenz-Mie calculation of OPC scattering (μg/m³)
DateTimeUTC,F1_M11,P_M11,Q1_M11,Q2_M11,T1_M11,T2_M11,T3_M11,T4_M11,T5_M11,U1_M11,ZSPAN_M11,X0_M11,X2_M11,X1_M11
2023-10-19 11:00:00,SystemResetWarning,0833.9,4.99,000.00,029.3,027.8,000.0,037.7,030.9,12.9,0000.0,0011.54,0003.59,0001.95
2023-10-19 11:01:00,SystemResetWarning,0834.0,5.00,000.00,029.3,027.8,000.0,037.7,030.9,13.0,0000.0,0011.94,0003.66,0001.93
2023-10-19 11:02:00,SystemResetWarning,0834.0,5.00,000.00,029.3,027.8,000.0,037.7,030.9,13.0,0000.0,0012.10,0003.65,0001.93
2023-10-19 11:03:00,SystemResetWarning,0834.0,5.00,000.00,029.3,027.8,000.0,037.7,030.9,13.0,0000.0,0012.34,0003.67,0001.92
2023-10-19 11:04:00,SystemResetWarning,0833.9,5.00,000.00,029.3,027.8,000.0,037.7,030.9,12.9,0000.0,0011.58,0003.63,0001.90
2023-10-19 11:05:00,SystemResetWarning,0833.9,5.00,000.00,029.3,027.8,000.0,037.7,030.9,13.0,0000.0,0012.05,0003.64,0001.91
2023-10-19 11:06:00,SystemResetWarning,0833.9,5.00,000.00,029.3,027.8,000.0,037.7,030.9,13.0,0000.0,0012.23,0003.68,0001.90
2023-10-19 11:07:00,SystemResetWarning,0834.0,5.00,000.00,029.3,027.8,000.0,037.7,030.9,13.0,0000.0,0012.33,0003.74,0001.91
2023-10-19 11:08:00,SystemResetWarning,0834.0,5.00,000.00,029.3,027.8,000.0,037.7,030.9,13.0,0000.0,0012.53,0003.75,0001.92
2023-10-19 11:09:00,SystemResetWarning,0834.0,5.00,000.00,029.3,027.7,000.0,037.7,030.9,13.0,0000.0,0012.34,0003.75,0001.91
2023-10-19 11:10:00,SystemResetWarning,0834.0,5.00,000.00,029.3,027.7,000.0,037.7,030.9,13.0,0000.0,0012.42,0003.70,0001.92
2023-10-19 11:11:00,SystemResetWarning,0834.0,5.00,000.00,029.3,027.7,000.0,037.7,030.9,13.1,0000.0,0012.30,0003.64,0001.90
2023-10-19 11:12:00,SystemResetWarning,0834.0,5.00,000.00,029.3,027.7,000.0,037.7,030.8,13.1,0000.0,0011.68,0003.58,0001.90
2023-10-19 11:13:00,SystemResetWarning,0834.0,5.00,000.00,029.3,027.7,000.0,037.7,030.8,13.2,0000.0,0010.64,0003.55,0001.91
2023-10-19 11:14:00,SystemResetWarning,0834.0,5.00,000.00,029.2,027.7,000.0,037.7,030.8,13.2,0000.0,0010.48,0003.47,0001.91
2023-10-19 11:15:00,SystemResetWarning,0834.0,5.00,000.00,029.2,027.7,000.0,037.7,030.8,13.2,0000.0,0010.96,0003.49,0001.92
2023-10-19 11:16:00,SystemResetWarning,0834.0,5.00,000.00,029.3,027.7,000.0,037.7,030.8,13.1,0000.0,0010.42,0003.49,0001.91
2023-10-19 11:17:00,SystemResetWarning,0834.0,5.00,000.00,029.2,027.7,000.0,037.7,030.8,13.1,0000.0,0010.31,0003.44,0001.91
2023-10-19 11:18:00,SystemResetWarning,0834.0,5.00,000.00,029.2,027.7,000.0,037.7,030.8,13.1,0000.0,0011.62,0003.41,0001.91
2023-10-19 11:19:00,SystemResetWarning,0834.0,5.00,000.00,029.2,027.7,000.0,037.7,030.8,13.1,0000.0,0011.75,0003.35,0001.90
2023-10-19 11:20:00,SystemResetWarning,0834.0,5.00,000.00,029.2,027.7,000.0,037.7,030.8,13.1,0000.0,0011.90,0003.31,0001.90
2023-10-19 11:21:00,SystemResetWarning,0834.0,5.00,000.00,029.2,027.7,000.0,037.7,030.8,13.0,0000.0,0012.20,0003.31,0001.89
2023-10-19 11:22:00,SystemResetWarning,0834.0,5.00,000.00,029.2,027.7,000.0,037.7,030.8,13.0,0000.0,0012.24,0003.32,0001.91
2023-10-19 11:23:00,SystemResetWarning,0834.0,5.00,000.00,029.2,027.7,000.0,037.7,030.8,13.1,0000.0,0012.20,0003.34,0001.92
2023-10-19 11:24:00,SystemResetWarning,0834.0,5.00,000.00,029.2,027.6,000.0,037.7,030.8,13.2,0000.0,0012.51,0003.36,0001.91
2023-10-19 11:25:00,SystemResetWarning,0834.0,5.00,000.00,029.2,027.6,000.0,037.7,030.8,13.2,0000.0,0012.55,0003.41,0001.91
2023-10-19 11:26:00,SystemResetWarning,0834.0,5.00,000.00,029.2,027.6,000.0,037.7,030.8,13.2,0000.0,0011.95,0003.43,0001.89
2023-10-19 11:27:00,SystemResetWarning,0834.0,5.00,000.00,029.2,027.6,000.0,037.7,030.7,13.2,0000.0,0012.10,0003.44,0001.88
2023-10-19 11:28:00,SystemResetWarning,0834.0,5.00,000.00,029.2,027.6,000.0,037.7,030.7,13.2,0000.0,0012.06,0003.43,0001.87
2023-10-19 11:29:00,SystemResetWarning,0834.0,5.00,000.00,029.2,027.6,000.0,037.6,030.7,13.2,0000.0,0010.96,0003.40,0001.86
2023-10-19 11:30:00,SystemResetWarning,0834.0,5.00,000.00,029.2,027.6,000.0,037.6,030.7,13.2,0000.0,0010.36,0003.41,0001.86
2023-10-19 11:31:00,SystemResetWarning,0834.0,5.00,000.00,029.2,027.6,000.0,037.6,030.7,13.2,0000.0,0010.36,0003.37,0001.84
2023-10-19 11:32:00,SystemResetWarning,0834.0,5.00,000.00,029.2,027.6,000.0,037.6,030.7,13.2,0000.0,0009.78,0003.36,0001.82
2023-10-19 11:33:00,SystemResetWarning,0834.0,5.00,000.00,029.2,027.6,000.0,037.6,030.7,13.2,0000.0,0009.47,0003.32,0001.80
2023-10-19 11:34:00,SystemResetWarning,0834.0,5.00,000.00,029.2,027.6,000.0,037.6,030.7,13.1,0000.0,0009.20,0003.29,0001.80
2023-10-19 11:35:00,SystemResetWarning,0834.0,5.00,000.00,029.2,027.6,000.0,037.6,030.7,13.1,0000.0,0008.69,0003.27,0001.80
2023-10-19 11:36:00,SystemResetWarning,0834.0,5.00,000.00,029.1,027.6,000.0,037.6,030.7,13.1,0000.0,0009.31,0003.27,0001.81
2023-10-19 11:37:00,SystemResetWarning,0834.0,5.00,000.00,029.1,027.6,000.0,037.6,030.7,13.1,0000.0,0009.14,0003.22,0001.83
2023-10-19 11:38:00,SystemResetWarning,0834.1,5.00,000.00,029.1,027.6,000.0,037.6,030.7,13.1,0000.0,0008.68,0003.17,0001.84
2023-10-19 11:39:00,SystemResetWarning,0834.1,5.00,000.00,029.1,027.5,000.0,037.6,030.7,13.2,0000.0,0009.07,0003.20,0001.84
2023-10-19 11:40:00,SystemResetWarning,0834.1,5.00,000.00,029.1,027.5,000.0,037.6,030.7,13.2,0000.0,0009.64,0003.20,0001.84
2023-10-19 11:41:00,SystemResetWarning,0834.1,5.00,000.00,029.1,027.5,000.0,037.6,030.7,13.2,0000.0,0009.70,0003.25,0001.85
2023-10-19 11:42:00,SystemResetWarning,0834.1,5.00,000.00,029.1,027.5,000.0,037.6,030.7,13.1,0000.0,0010.02,0003.29,0001.85
2023-10-19 11:43:00,SystemResetWarning,0834.1,5.00,000.00,029.1,027.5,000.0,037.6,030.6,13.1,0000.0,0010.42,0003.32,0001.87
2023-10-19 11:44:00,SystemResetWarning,0834.0,5.00,000.00,029.1,027.5,000.0,037.6,030.6,13.1,0000.0,0011.02,0003.34,0001.87
2023-10-19 11:45:00,SystemResetWarning,0834.0,5.01,000.00,029.1,027.5,000.0,037.6,030.6,13.1,0000.0,0011.93,0003.34,0001.86
2023-10-19 11:46:00,SystemResetWarning,0834.0,5.01,000.00,029.0,027.5,000.0,037.6,030.6,13.1,0000.0,0012.23,0003.32,0001.85
2023-10-19 11:47:00,SystemResetWarning,0834.0,5.01,000.00,029.0,027.4,000.0,037.6,030.6,13.1,0000.0,0013.19,0003.29,0001.85
2023-10-19 11:48:00,SystemResetWarning,0834.0,4.99,000.00,029.0,027.4,000.0,037.6,030.6,13.3,0000.0,0013.21,0003.27,0001.84
2023-10-19 11:49:00,SystemResetWarning,0834.0,4.98,000.00,029.0,027.5,000.0,037.6,030.6,13.3,0000.0,0013.14,0003.27,0001.84
2023-10-19 11:50:00,SystemResetWarning,0834.0,5.01,000.00,029.0,027.5,000.0,037.5,030.6,13.4,0000.0,0012.73,0003.21,0001.85
2023-10-19 11:51:00,SystemResetWarning,0834.0,5.01,000.00,029.0,027.5,000.0,037.5,030.6,13.3,0000.0,0012.84,0003.21,0001.87
2023-10-19 11:52:00,SystemResetWarning,0834.0,5.01,000.00,029.0,027.5,000.0,037.5,030.6,13.2,0000.0,0012.72,0003.16,0001.85
2023-10-19 11:53:00,SystemResetWarning,0834.0,4.99,000.00,029.0,027.5,000.0,037.5,030.6,13.2,0000.0,0012.26,0003.12,0001.84
2023-10-19 11:54:00,SystemResetWarning,0834.0,4.99,000.00,029.0,027.5,000.0,037.5,030.6,13.2,0000.0,0012.11,0003.07,0001.84
2023-10-19 11:55:00,SystemResetWarning,0834.0,5.00,000.00,029.0,027.5,000.0,037.5,030.6,13.2,0000.0,0012.97,0003.01,0001.85
2023-10-19 11:56:00,SystemResetWarning,0834.0,5.00,000.00,029.0,027.5,000.0,037.5,030.6,13.3,0000.0,0012.42,0003.05,0001.85
2023-10-19 11:57:00,SystemResetWarning,0834.0,5.00,000.00,029.0,027.4,000.0,037.5,030.6,13.4,0000.0,0012.57,0003.12,0001.86
2023-10-19 11:58:00,SystemResetWarning,0834.0,5.00,000.00,029.0,027.4,000.0,037.5,030.6,13.4,0000.0,0011.16,0003.11,0001.86
2023-10-19 11:59:00,SystemResetWarning,0834.0,5.00,000.00,029.0,027.4,000.0,037.5,030.6,13.3,0000.0,0011.67,0003.13,0001.87
